Wind_Speed
16 12 8 6 6 7 10 13 15 17 18 19 18 18 17 16 14 13 12 11 10 9 8 7 5 3 2 1 0 0 1 1 1 1 2 2 2 2 2 2 2 1 2
15 11 7 5 5 7 9 14 17 17 17 19 19 18 17 16 15 14 13 12 11 9 8 8 6 4 3 2 1 1 0 0 1 1 1 1 2 2 3 2 2 2 2
14 11 7 5 6 8 10 13 17 18 18 20 20 18 17 17 17 15 14 13 11 10 10 8 7 5 4 3 2 1 0 0 0 1 1 1 1 2 3 3 2 2 2
12 10 7 5 5 7 10 13 16 18 20 20 20 19 17 17 16 16 15 14 12 11 11 9 8 6 5 4 3 2 1 0 0 0 1 2 2 2 3 3 3 3 3
10 8 6 4 4 6 9 12 16 18 20 20 20 19 18 17 17 16 15 15 14 12 11 10 9 7 6 5 4 3 2 2 1 1 2 2 3 3 3 4 4 4 4
9 7 5 3 3 5 8 11 15 17 18 19 19 19 18 18 17 16 16 16 15 13 12 11 10 9 8 7 6 5 4 3 3 3 3 4 4 4 5 5 5 6 6
7 6 5 4 3 4 7 11 13 15 17 18 19 19 18 18 18 17 17 16 15 14 13 12 12 11 10 9 8 7 6 6 6 6 6 6 6 7 7 7 7 7 7
7 6 5 3 3 4 6 8 12 13 15 16 18 18 18 18 17 17 17 16 16 15 14 14 13 13 12 11 10 10 9 9 9 9 9 10 10 10 10 10 10 10 10
7 6 5 3 2 3 6 9 10 12 13 15 16 17 17 17 17 17 17 16 16 16 15 15 15 15 15 14 13 13 12 13 13 13 13 13 13 13 13 13 13 13 13
7 6 5 4 2 2 4 7 10 11 11 12 14 15 16 17 17 17 17 17 17 16 16 17 17 17 17 16 16 16 16 16 16 16 16 16 16 17 17 17 17 17 16
8 7 6 4 3 2 4 6 8 10 10 11 12 14 15 16 17 18 17 17 17 18 18 18 18 19 19 19 19 20 20 20 20 20 20 20 20 20 20 20 20 20 19
9 8 7 6 5 4 4 5 6 8 10 11 12 14 15 16 17 18 18 18 18 18 19 19 20 20 21 22 22 23 23 23 24 23 24 24 24 24 24 24 23 23 22
9 9 8 8 7 6 6 6 7 8 9 11 12 12 14 16 17 18 18 19 20 20 21 21 22 23 24 24 25 26 26 27 27 27 28 28 28 28 27 27 27 27 26
12 12 11 10 9 9 9 9 9 10 10 11 12 13 14 15 16 18 18 20 21 22 23 24 25 25 26 27 28 28 29 30 30 31 31 31 31 31 31 31 30 30 29
14 13 13 12 12 12 12 12 12 13 13 14 14 16 16 17 18 19 20 22 24 25 26 27 27 28 29 30 31 31 32 33 33 33 34 34 34 34 34 33 33 32 32
15 15 15 15 15 14 14 14 14 15 16 16 17 18 18 19 20 21 22 24 25 27 28 29 30 30 32 33 33 34 35 35 35 36 36 36 36 36 36 36 36 36 35
17 17 16 16 16 16 17 16 16 17 17 18 19 19 20 20 21 22 23 24 26 28 29 30 32 33 34 34 35 37 36 36 37 38 38 38 39 39 39 39 38 38 38
19 19 19 18 18 18 19 18 18 18 18 19 21 21 21 22 23 24 24 25 26 28 29 31 33 34 35 37 38 38 38 39 39 40 40 40 40 41 41 41 41 41 42
21 21 20 20 20 20 20 20 20 20 19 20 22 23 23 24 25 25 26 27 28 28 30 31 33 34 36 37 37 38 38 39 40 40 40 41 41 41 42 42 43 43 44
22 22 22 22 21 21 21 21 21 21 21 22 23 25 26 26 27 27 28 29 29 30 32 33 34 34 36 38 39 39 39 39 39 40 40 41 42 42 43 43 44 45 46
23 23 24 23 22 22 22 22 22 22 23 24 25 25 27 28 29 29 30 31 32 33 34 35 36 37 38 39 39 40 41 41 42 42 42 42 43 44 45 46 45 46 47
23 23 23 23 22 21 22 22 23 24 25 25 26 27 27 28 29 30 31 32 33 35 35 37 38 39 39 40 40 42 42 43 43 44 45 45 45 46 47 47 47 49 50
24 24 24 22 22 23 23 23 23 24 25 26 26 27 28 29 30 31 33 34 34 35 35 37 39 40 40 41 42 42 43 44 44 44 45 46 46 47 48 48 49 50 51
25 24 23 22 22 22 22 23 24 24 25 26 27 28 29 30 31 32 34 35 36 37 37 38 38 39 40 40 41 42 43 44 45 45 46 47 48 49 49 50 51 52 52
25 24 23 23 22 22 23 24 25 26 27 28 28 29 30 31 32 34 35 36 37 38 39 39 40 40 41 41 42 43 44 45 46 47 48 49 49 49 51 52 52 53 55
23 23 22 22 22 23 24 25 26 27 28 29 30 30 31 32 32 34 35 36 37 38 39 39 40 41 42 42 43 44 46 47 47 48 48 49 50 51 53 54 54 55 56
Wind_Direction
328 322 307 272 249 220 209 208 206 204 204 202 200 202 205 206 209 211 212 211 212 214 214 214 212 210 216 215 198 72 55 58 58 50 37 32 34 31 26 18 1 337 284
326 321 313 288 242 218 214 212 206 202 199 197 196 198 201 204 207 209 209 211 214 212 209 211 209 202 201 199 187 155 123 62 53 52 38 37 27 19 18 13 1 356 345
321 320 311 296 240 220 216 210 205 200 197 195 196 200 203 205 208 209 209 208 209 210 208 210 208 204 204 202 188 172 170 119 76 48 31 21 8 6 6 9 4 356 348
322 317 303 289 247 225 213 206 202 199 197 196 198 201 204 207 209 210 209 206 206 208 207 207 208 206 206 203 192 189 216 258 296 340 353 352 344 341 349 352 346 336 327
321 321 311 280 232 214 206 205 198 199 201 200 201 202 203 207 207 209 208 207 206 208 210 211 211 211 213 213 209 214 233 256 280 302 313 316 320 327 333 335 334 327 319
319 319 316 286 230 206 202 199 194 196 197 201 202 201 203 206 205 206 208 208 210 212 216 219 219 219 221 222 224 229 237 252 267 278 290 299 304 308 313 314 317 318 317
322 323 324 292 247 213 200 197 195 194 198 202 202 204 206 208 208 209 208 211 215 219 222 225 226 227 228 229 234 242 249 258 265 273 280 287 291 296 299 301 304 305 305
323 322 323 309 244 219 203 193 193 194 198 204 208 210 209 210 211 213 214 216 220 223 227 228 229 232 233 236 242 248 255 260 265 272 278 282 286 289 291 292 294 295 295
314 310 318 314 269 223 204 195 194 195 198 203 207 212 213 213 214 217 220 222 225 229 231 233 233 234 237 242 247 252 257 262 266 270 275 279 282 284 286 287 287 288 287
304 299 297 296 289 218 203 200 199 199 202 207 209 212 214 217 219 221 224 227 230 232 236 238 238 240 243 247 251 256 259 263 266 269 272 275 278 280 282 283 282 282 282
295 287 277 268 258 233 210 200 200 205 210 214 214 216 218 222 225 227 227 232 235 237 241 242 244 246 249 252 256 260 262 264 266 269 271 273 276 277 278 280 281 280 279
284 273 264 260 251 240 224 211 206 212 216 217 219 224 228 231 232 232 235 239 243 244 245 247 249 252 255 258 260 262 263 265 267 269 271 273 274 276 278 278 278 278 277
275 267 259 254 252 247 242 236 230 227 227 226 227 231 236 236 237 238 243 247 248 250 251 253 255 257 259 260 262 264 265 267 269 270 272 273 274 275 276 277 276 276 275
269 266 261 254 254 253 251 248 245 243 241 239 238 241 242 243 243 248 251 253 254 255 257 259 261 262 263 264 266 267 268 269 270 272 273 273 274 274 275 275 274 274 274
264 262 258 255 255 255 254 253 251 250 249 248 247 248 248 250 252 255 257 256 256 257 259 260 263 265 266 267 267 268 269 270 272 273 274 274 273 273 273 273 273 274 273
256 254 256 256 258 255 254 255 255 254 254 253 252 253 255 256 256 258 259 259 258 258 260 262 264 266 268 269 269 269 270 271 272 272 272 273 273 273 273 273 273 273 273
255 254 255 254 257 253 252 254 256 256 254 256 257 258 259 260 260 261 262 263 262 262 263 265 265 267 269 269 270 271 272 272 273 273 273 273 273 273 272 273 273 273 273
253 253 253 252 255 253 253 255 256 258 260 259 261 261 261 263 263 264 265 266 267 266 266 267 267 268 269 270 272 274 273 272 272 273 272 273 274 274 274 273 272 273 273
254 253 252 249 251 253 254 256 258 258 262 260 260 262 264 266 266 267 268 269 269 269 269 270 270 270 270 270 272 273 275 275 275 274 273 272 273 274 274 274 274 273 273
252 253 253 255 253 253 254 257 259 261 263 263 264 265 266 268 268 268 269 270 271 271 272 272 273 273 273 272 273 274 275 275 275 274 273 273 274 274 274 274 274 274 274
251 253 253 252 251 253 256 259 261 263 265 264 266 267 269 272 272 272 272 274 275 274 274 274 274 275 274 274 274 274 274 274 273 273 273 274 274 275 274 274 274 274 275
251 252 250 249 251 255 258 262 265 267 267 268 270 271 274 275 275 274 275 277 278 277 276 277 277 276 276 277 276 275 275 274 274 273 274 274 274 275 275 276 276 275 275
250 249 248 249 252 256 259 262 265 268 270 270 273 276 276 277 278 277 277 279 279 279 278 279 278 278 279 278 278 278 277 275 274 274 274 275 275 276 276 277 278 277 277
247 247 248 250 254 258 261 264 267 270 273 275 277 278 279 279 280 279 279 279 279 279 280 280 281 281 280 279 279 280 279 277 276 276 276 277 277 277 277 277 278 278 278
248 248 248 251 256 262 266 268 270 273 276 278 278 278 278 279 279 280 281 281 280 281 281 281 281 281 281 281 280 280 280 280 279 278 278 278 277 277 277 277 277 278 279
245 246 251 256 261 266 269 272 274 277 278 279 280 281 281 281 282 283 282 282 282 282 283 283 282 282 282 282 281 281 280 280 280 279 279 280 280 279 279 280 280 280 280
Height
5831 5828 5825 5825 5826 5827 5828 5830 5833 5835 5839 5842 5846 5850 5854 5857 5860 5862 5865 5867 5868 5870 5871 5873 5874 5874 5875 5875 5876 5876 5876 5876 5877 5877 5877 5876 5876 5876 5875 5875 5875 5875 5874
5830 5827 5825 5824 5825 5826 5827 5828 5831 5834 5837 5842 5845 5849 5852 5856 5859 5861 5863 5865 5867 5869 5870 5872 5873 5874 5875 5875 5875 5876 5876 5876 5876 5877 5876 5876 5877 5876 5876 5875 5875 5874 5874
5829 5827 5825 5824 5824 5824 5825 5826 5828 5832 5836 5840 5844 5847 5851 5854 5857 5860 5862 5864 5866 5868 5869 5871 5872 5873 5874 5875 5875 5875 5876 5876 5876 5876 5877 5876 5876 5876 5876 5875 5875 5874 5874
5828 5826 5825 5823 5822 5822 5823 5825 5827 5830 5834 5838 5842 5846 5849 5853 5855 5858 5860 5862 5864 5866 5868 5870 5871 5872 5873 5874 5875 5875 5876 5876 5876 5876 5876 5876 5876 5876 5876 5875 5875 5874 5874
5827 5826 5824 5823 5822 5821 5822 5824 5826 5829 5833 5836 5840 5844 5847 5851 5854 5856 5859 5861 5863 5865 5867 5869 5870 5871 5873 5874 5874 5875 5875 5876 5876 5876 5876 5876 5876 5875 5875 5875 5875 5874 5873
5827 5826 5824 5823 5822 5821 5822 5823 5825 5828 5832 5835 5839 5843 5846 5849 5852 5854 5857 5860 5862 5864 5866 5868 5869 5870 5872 5873 5874 5874 5875 5875 5875 5875 5875 5875 5875 5875 5875 5874 5874 5873 5873
5826 5825 5824 5823 5822 5822 5822 5823 5825 5828 5831 5834 5837 5841 5844 5847 5850 5853 5855 5858 5860 5863 5864 5866 5868 5869 5870 5871 5872 5873 5874 5874 5874 5874 5874 5874 5874 5874 5873 5873 5872 5872 5871
5827 5825 5824 5823 5823 5823 5823 5823 5825 5828 5830 5833 5836 5839 5843 5846 5848 5851 5854 5856 5859 5861 5862 5864 5866 5867 5868 5869 5870 5871 5872 5872 5872 5872 5872 5872 5872 5872 5871 5871 5871 5870 5869
5827 5826 5825 5824 5824 5824 5824 5824 5826 5828 5830 5833 5836 5838 5841 5844 5847 5849 5852 5854 5856 5858 5860 5861 5863 5864 5866 5867 5868 5868 5869 5869 5870 5870 5870 5869 5869 5869 5869 5868 5868 5868 5867
5827 5826 5825 5824 5824 5824 5825 5825 5827 5828 5830 5832 5834 5837 5839 5842 5844 5847 5849 5851 5853 5855 5857 5859 5860 5861 5863 5864 5864 5865 5866 5866 5866 5866 5866 5866 5866 5865 5865 5865 5864 5864 5863
5826 5825 5824 5824 5824 5824 5825 5825 5827 5828 5830 5832 5833 5835 5837 5839 5842 5844 5847 5849 5851 5852 5854 5855 5856 5858 5859 5860 5860 5861 5862 5862 5862 5862 5862 5862 5861 5861 5861 5860 5860 5859 5858
5824 5824 5824 5824 5824 5824 5825 5825 5826 5827 5829 5831 5832 5834 5835 5837 5839 5841 5843 5846 5848 5849 5850 5851 5852 5854 5854 5855 5856 5856 5857 5857 5857 5857 5857 5856 5856 5856 5855 5855 5854 5854 5853
5822 5823 5823 5823 5823 5824 5824 5824 5825 5826 5828 5829 5831 5832 5833 5834 5835 5838 5840 5842 5844 5845 5846 5847 5848 5849 5849 5850 5850 5850 5851 5851 5851 5851 5851 5850 5850 5849 5849 5848 5848 5847 5847
5820 5820 5821 5821 5822 5822 5823 5823 5824 5825 5826 5828 5829 5830 5830 5831 5833 5835 5837 5838 5839 5840 5841 5842 5843 5843 5844 5844 5844 5844 5844 5844 5844 5844 5843 5843 5843 5842 5842 5841 5840 5840 5840
5817 5817 5818 5819 5819 5820 5820 5821 5822 5823 5824 5825 5826 5827 5828 5829 5830 5831 5832 5833 5834 5834 5835 5836 5837 5837 5837 5837 5837 5837 5837 5836 5836 5836 5835 5835 5834 5833 5833 5833 5832 5832 5831
5814 5814 5815 5816 5816 5817 5818 5818 5819 5820 5821 5821 5822 5823 5824 5825 5825 5826 5827 5827 5828 5828 5829 5829 5829 5830 5829 5829 5829 5828 5828 5828 5827 5826 5826 5825 5825 5824 5824 5823 5823 5822 5822
5810 5811 5811 5812 5812 5813 5814 5815 5815 5815 5816 5817 5817 5818 5819 5820 5820 5821 5821 5821 5821 5821 5822 5822 5822 5822 5822 5821 5820 5820 5819 5819 5818 5817 5816 5815 5815 5814 5814 5813 5813 5812 5811
5806 5806 5806 5807 5808 5809 5809 5810 5811 5811 5811 5812 5813 5813 5813 5814 5814 5815 5815 5814 5814 5814 5814 5814 5813 5813 5813 5812 5811 5810 5810 5809 5808 5807 5806 5805 5804 5803 5803 5802 5802 5801 5800
5800 5801 5801 5802 5803 5804 5805 5805 5806 5806 5806 5806 5807 5807 5808 5808 5808 5808 5808 5807 5807 5807 5806 5805 5805 5804 5803 5802 5801 5800 5799 5799 5798 5796 5795 5794 5794 5792 5791 5791 5790 5789 5788
5794 5795 5796 5796 5797 5798 5799 5800 5800 5800 5801 5801 5800 5801 5801 5802 5801 5801 5800 5799 5799 5798 5797 5796 5795 5794 5793 5792 5791 5790 5789 5788 5787 5785 5784 5783 5782 5781 5779 5778 5778 5777 5776
5787 5788 5789 5790 5791 5792 5793 5794 5794 5794 5794 5794 5794 5794 5794 5794 5793 5793 5792 5791 5789 5788 5788 5786 5785 5784 5783 5781 5780 5779 5778 5777 5775 5774 5773 5771 5770 5768 5767 5766 5765 5764 5762
5780 5781 5782 5783 5785 5786 5787 5787 5787 5787 5787 5787 5787 5786 5786 5786 5785 5784 5783 5782 5781 5779 5778 5776 5775 5773 5772 5770 5769 5768 5766 5764 5763 5762 5760 5759 5757 5755 5754 5752 5751 5750 5749
5773 5774 5775 5777 5778 5779 5780 5780 5781 5780 5780 5779 5779 5779 5778 5777 5776 5775 5774 5772 5771 5770 5768 5766 5764 5763 5761 5759 5758 5756 5754 5752 5751 5749 5748 5746 5744 5742 5740 5739 5737 5735 5733
5765 5767 5768 5770 5771 5772 5773 5773 5773 5773 5773 5772 5771 5770 5769 5768 5767 5765 5764 5762 5761 5759 5757 5755 5753 5751 5749 5747 5745 5743 5741 5739 5738 5736 5734 5732 5730 5728 5726 5724 5722 5720 5718
5758 5760 5762 5763 5764 5765 5765 5765 5765 5765 5764 5764 5763 5761 5760 5759 5757 5755 5754 5751 5749 5748 5746 5744 5742 5739 5737 5735 5733 5730 5728 5726 5724 5721 5719 5717 5715 5713 5711 5708 5706 5704 5702
5752 5754 5756 5757 5757 5758 5758 5758 5757 5757 5756 5755 5754 5752 5751 5749 5747 5745 5743 5741 5739 5737 5734 5732 5730 5727 5725 5722 5719 5717 5715 5712 5710 5707 5705 5702 5700 5698 5695 5692 5690 5688 5685